Location: Fauquembergues
(50.6005°N, 2.0987°E)
Time: 20:54:39
(UTC+00:00)

CZ-4B R/B - Pass Details

Date: 14 July 2020
Orbit: 702 x 803 km, 98.9° (Epoch: 14 August)

Event Time Altitude Azimuth Distance (km) Brightness Sun altitude
Rises 02:17:22 0° 14° (NNE) 3,263 8.3 -11.5°
Reaches altitude 10° 02:19:43 10° 13° (NNE) 2,316 7.2 -11.3°
Maximum altitude 02:24:49 77° 288° (WNW) 775 3.5 -10.8°
Enters shadow 02:29:11 13° 204° (SSW) 2,020 5.0 -10.4°
